Location: Oriwa
(40.7500°S, 175.3333°E)
Time: 14:14:27
(UTC+00:00)

In-Cosmos 22 - Pass Details

Date: 03 February 2023
Orbit: 785 x 876 km, 81.2° (Epoch: 30 March)

Event Time Altitude Azimuth Distance (km) Brightness Sun altitude
Exits shadow 14:42:33 56° 22° (NNE) 983 4.3 -25.3°
Maximum altitude 14:43:38 72° 83° (E) 877 4.2 -25.2°
Drops below altitude 10° 14:49:16 10° 166° (SSE) 2,492 7.5 -24.6°
Sets 14:51:44 0° 168° (SSE) 3,449 8.4 -24.3°
